"2016-01-29 00:00:00",1326171,8.18,321.2,7.358,1.564,17.46,104.9671,11.99,13.23,18.76,0,110.4,13.13,12.78,283.2
"2016-01-29 00:00:30",1326172,7.859,323.6,6.941,1.278,16.23,104.9669,11.99,13.1,18.68,0,110.4,13.12,12.78,285.6
"2016-01-29 00:01:00",1326173,7.55,321,4.277,0.699,14.99,104.9678,11.99,13.04,18.59,0,110.4,13.13,12.78,283.0
"2016-01-29 00:01:30",1326174,7.315,317.3,0.884,0.206,14.36,104.9667,11.99,12.99,18.53,0,110.4,13.17,12.78,279.3
"2016-01-29 00:02:00",1326175,6.758,318.8,1.47,0.196,14.4,104.9634,11.98,12.97,18.58,0,110.4,13.17,12.77,280.8
"2016-01-29 00:02:30",1326176,7.563,324.2,7.198,1.421,16.47,104.953,11.95,13.1,18.76,0,110.4,13.12,12.75,286.2
"2016-01-29 00:03:00",1326177,8.65,327,6.83,1.403,18.56,104.9566,11.96,13.24,18.83,0,110.4,13.12,12.76,289.0
"2016-01-29 00:03:30",1326178,7.792,318.2,7.476,1.331,16.96,104.9548,11.96,13.12,18.67,0,110.4,13.12,12.75,280.2
"2016-01-29 00:04:00",1326179,8.02,319.1,8.25,1.403,17.07,104.9554,11.96,13.08,18.36,0,110.4,13.12,12.75,281.1
"2016-01-29 00:04:30",1326180,7.753,322.2,6.61,1.146,15.87,104.9555,11.96,13.07,18.31,0,110.4,13.13,12.75,284.2
"2016-01-29 00:05:00",1326181,7.767,312.7,1.685,0.221,14.38,104.9469,11.94,12.94,18.21,0,110.4,13.17,12.73,274.7
"2016-01-29 00:05:30",1326182,7.16,313.9,1.363,0.344,14.45,104.9309,11.9,12.94,18.26,0,110.4,13.17,12.69,275.9
"2016-01-29 00:06:00",1326183,8.38,323.1,7.36,1.6,17.28,104.9282,11.89,13.11,18.54,0,110.4,13.13,12.68,285.1
"2016-01-29 00:06:30",1326184,7.585,317.7,6.2,1.183,15.86,104.926,11.88,13.07,18.47,0,110.4,13.13,12.68,279.7
"2016-01-29 00:07:00",1326185,9.03,323.2,7.935,1.441,17.33,104.9272,11.89,13.09,18.41,0,110.4,13.13,12.68,285.2
"2016-01-29 00:07:30",1326186,8.81,322.8,8.35,1.888,17.36,104.9222,11.87,13.08,18.51,0,110.4,13.13,12.67,284.8
"2016-01-29 00:08:00",1326187,8.22,325.3,7.658,1.248,16.65,104.9024,11.82,13.01,18.53,0,110.4,13.13,12.62,287.3
"2016-01-29 00:08:30",1326188,6.826,319.2,2.832,0.233,14.38,104.9025,11.82,12.86,18.46,0,110.4,13.18,12.62,281.2
"2016-01-29 00:09:00",1326189,7.751,326.2,6.941,1.323,15.78,104.9013,11.82,12.91,18.6,0,110.4,13.14,12.61,288.2
"2016-01-29 00:09:30",1326190,8.14,325.3,7.097,1.44,16.56,104.8949,11.8,13.02,18.67,0,110.4,13.14,12.60,287.3
"2016-01-29 00:10:00",1326191,9.22,324,8.25,1.402,16.53,104.8843,11.78,12.93,18.59,0,110.4,13.14,12.57,286.0
"2016-01-29 00:10:30",1326192,8.78,324.6,7.272,1.295,16.31,104.8728,11.75,12.91,18.67,0,110.4,13.14,12.54,286.6
"2016-01-29 00:11:00",1326193,8.73,324.5,7.372,1.531,16.8,104.8725,11.75,12.9,18.82,0,110.4,13.14,12.54,286.5
"2016-01-29 00:11:30",1326194,8.02,323.6,6.287,1.39,15.97,104.8629,11.72,12.85,18.77,0,110.4,13.14,12.51,285.6
"2016-01-29 00:12:00",1326195,7.767,319,3.434,0.242,14.32,104.8426,11.67,12.72,18.59,0,110.4,13.19,12.46,281.0
"2016-01-29 00:12:30",1326196,8.45,319.8,6.857,1.32,15.75,104.8392,11.66,12.84,18.62,0,110.4,13.14,12.45,281.8
"2016-01-29 00:13:00",1326197,9.6,325.7,7.142,1.247,17.28,104.837,11.66,12.89,18.73,0,110.4,13.15,12.45,287.7
"2016-01-29 00:13:30",1326198,9.79,332.2,6.724,1.356,17.33,104.8235,11.62,12.83,18.66,0,110.4,13.15,12.41,294.2
"2016-01-29 00:14:00",1326199,8.37,325.3,5.921,1.286,15.89,104.8111,11.59,12.78,18.65,0,110.4,13.15,12.38,287.3
"2016-01-29 00:14:30",1326200,8.71,328.4,7.298,1.333,17.11,104.8054,11.57,12.86,18.77,0,110.4,13.15,12.37,290.4
"2016-01-29 00:15:00",1326201,8.46,326.5,6.583,1.13,15.53,104.8048,11.57,12.74,18.62,0,110.4,13.15,12.37,288.5
"2016-01-29 00:15:30",1326202,8.48,325.7,1.829,0.298,14.29,104.7947,11.55,12.62,18.51,0,110.4,13.19,12.34,287.7
"2016-01-29 00:16:00",1326203,9.61,331.3,8.75,1.373,16.95,104.7766,11.5,12.75,18.82,0,110.4,13.15,12.29,293.3
"2016-01-29 00:16:30",1326204,8.48,328.3,6.835,1.189,15.79,104.7716,11.49,12.67,18.94,0,110.4,13.15,12.28,290.3
"2016-01-29 00:17:00",1326205,9.31,327.5,6.243,1.288,15.84,104.7716,11.49,12.67,18.93,0,110.4,13.15,12.28,289.5
"2016-01-29 00:17:30",1326206,10.21,334.3,6.904,1.352,17.9,104.7676,11.48,12.69,19.05,0,110.3,13.15,12.27,296.3
"2016-01-29 00:18:00",1326207,8.67,328.3,5.473,1.277,16.08,104.758,11.45,12.69,19.19,0,110.4,13.14,12.25,290.3
"2016-01-29 00:18:30",1326208,8.8,324.9,6.917,1.149,15.36,104.7437,11.42,12.54,19.14,0,110.3,13.14,12.21,286.9
"2016-01-29 00:19:00",1326209,8.13,321.4,1.224,0.267,14.38,104.7401,11.41,12.56,18.8,0,110.3,13.19,12.20,283.4
"2016-01-29 00:19:30",1326210,9.95,327.7,8.24,1.265,16.83,104.7439,11.42,12.61,19.07,0,110.3,13.14,12.21,289.7
"2016-01-29 00:20:00",1326211,9.28,329.1,7.773,1.414,16.79,104.7395,11.41,12.61,19.11,0,110.3,13.15,12.20,291.1
"2016-01-29 00:20:30",1326212,9.26,327.8,6.694,1.497,16.57,104.7308,11.38,12.64,19.23,0,110.3,13.14,12.18,289.8
"2016-01-29 00:21:00",1326213,9.83,327.9,6.685,1.411,17,104.7167,11.35,12.59,18.91,0,110.3,13.14,12.14,289.9
"2016-01-29 00:21:30",1326214,9.02,327.3,7.244,1.371,16.16,104.7157,11.34,12.5,18.9,0,110.3,13.14,12.14,289.3
"2016-01-29 00:22:00",1326215,7.51,324,1.344,0.175,14.19,104.719,11.35,12.39,19.02,0,110.3,13.19,12.15,286.0
"2016-01-29 00:22:30",1326216,8.42,329.1,6.258,1.399,15.55,104.7179,11.35,12.52,19.33,0,110.3,13.15,12.14,291.1
"2016-01-29 00:23:00",1326217,9.2,328.4,8.5,1.477,16.78,104.7106,11.33,12.53,19.29,0,110.3,13.15,12.12,290.4
"2016-01-29 00:23:30",1326218,8.59,325.1,6.688,1.334,15.52,104.7022,11.31,12.46,19.1,0,110.3,13.15,12.10,287.1
"2016-01-29 00:24:00",1326219,9.16,328.1,7.472,1.398,16.32,104.6954,11.29,12.52,19.19,0,110.3,13.16,12.08,290.1
"2016-01-29 00:24:30",1326220,8.51,328.4,6.228,1.204,15.87,104.6963,11.3,12.46,19.22,0,110.3,13.16,12.09,290.4
"2016-01-29 00:25:00",1326221,8.42,329,6.889,1.408,15.65,104.6978,11.3,12.38,19.38,0,110.3,13.16,12.09,291.0
"2016-01-29 00:25:30",1326222,7.856,323.8,2.708,0.722,14.17,104.694,11.29,12.31,19.21,0,110.3,13.16,12.08,285.8
"2016-01-29 00:26:00",1326223,8.28,324.1,6.674,1.199,15.57,104.6856,11.27,12.45,19.26,0,110.3,13.16,12.06,286.1
"2016-01-29 00:26:30",1326224,8.77,323.6,7.641,1.374,16.35,104.6712,11.23,12.47,19.16,0,110.3,13.16,12.02,285.6
"2016-01-29 00:27:00",1326225,8.89,324.8,7.139,1.372,16.35,104.6707,11.23,12.37,19.11,0,110.3,13.16,12.02,286.8
"2016-01-29 00:27:30",1326226,8.67,321.1,7.722,1.497,17,104.671,11.23,12.47,19.05,0,110.3,13.16,12.02,283.1
"2016-01-29 00:28:00",1326227,9.09,324.2,7.935,1.574,16.63,104.6708,11.23,12.33,18.79,0,110.3,13.16,12.02,286.2
"2016-01-29 00:28:30",1326228,8.08,318.8,5.329,1.045,15.42,104.6643,11.21,12.32,18.75,0,110.3,13.16,12.00,280.8
"2016-01-29 00:29:00",1326229,8.03,317.3,6.921,1.317,15.47,104.6544,11.19,12.33,18.8,0,110.3,13.16,11.98,279.3
"2016-01-29 00:29:30",1326230,8.06,319.2,7.378,1.244,15.52,104.6516,11.18,12.33,18.85,0,110.3,13.16,11.97,281.2
"2016-01-29 00:30:00",1326231,8.35,325.8,6.423,1.431,16.61,104.6448,11.16,12.33,18.79,0,110.3,13.16,11.95,287.8
"2016-01-29 00:30:30",1326232,8.38,329.3,7.58,1.435,16.86,104.6381,11.15,12.36,18.98,0,110.3,13.16,11.94,291.3
"2016-01-29 00:31:00",1326233,7.809,322.3,5.036,1.47,15.72,104.6378,11.15,12.26,18.91,0,110.3,13.16,11.94,284.3
"2016-01-29 00:31:30",1326234,8.38,321.7,7.309,1.254,15.77,104.6378,11.15,12.32,18.85,0,110.3,13.16,11.94,283.7
"2016-01-29 00:32:00",1326235,7.498,323.8,3.632,0.886,14.88,104.635,11.14,12.2,18.73,0,110.3,13.16,11.93,285.8
"2016-01-29 00:32:30",1326236,8.68,326.2,7.911,1.414,16.12,104.6276,11.12,12.26,18.91,0,110.3,13.16,11.91,288.2
"2016-01-29 00:33:00",1326237,8.18,322.9,6.867,1.297,15.5,104.6208,11.1,12.25,18.89,0,110.3,13.16,11.89,284.9
"2016-01-29 00:33:30",1326238,8.29,322,6.477,1.373,15.49,104.6206,11.1,12.25,18.9,0,110.3,13.16,11.89,284.0
"2016-01-29 00:34:00",1326239,7.747,323.2,8,1.333,16.02,104.6101,11.07,12.3,19.03,0,110.3,13.17,11.87,285.2
"2016-01-29 00:34:30",1326240,7.873,324.3,8.1,1.446,16.68,104.6039,11.06,12.24,19.08,0,110.3,13.17,11.85,286.3
"2016-01-29 00:35:00",1326241,6.998,320.2,7.66,1.292,15.6,104.6039,11.06,12.21,19.11,0,110.3,13.16,11.85,282.2
"2016-01-29 00:35:30",1326242,6.739,318.6,6.589,0.99,14.89,104.6039,11.06,12.2,19.15,0,110.3,13.16,11.85,280.6
"2016-01-29 00:36:00",1326243,6.918,322.5,6.276,1.372,15.61,104.6025,11.06,12.23,19.27,0,110.3,13.16,11.85,284.5
"2016-01-29 00:36:30",1326244,6.632,321.6,5.779,1.431,15.59,104.5963,11.04,12.22,19.37,0,110.3,13.16,11.83,283.6
"2016-01-29 00:37:00",1326245,7.359,321.9,9.95,1.374,16.5,104.5842,11.01,12.23,19.45,0,110.3,13.16,11.80,283.9
"2016-01-29 00:37:30",1326246,6.599,322.2,7.237,1.118,15.27,104.5809,11,12.15,19.47,0,110.3,13.16,11.79,284.2
"2016-01-29 00:38:00",1326247,7.024,323.8,7.491,1.276,15.8,104.5736,10.98,12.15,19.46,0,110.3,13.16,11.77,285.8
"2016-01-29 00:38:30",1326248,6.466,326.8,6.571,1.371,15.57,104.576,10.99,12.17,19.57,0,110.3,13.16,11.78,288.8
"2016-01-29 00:39:00",1326249,5.691,324.3,6.348,0.967,14.59,104.5724,10.98,12.1,19.64,0,110.3,13.16,11.77,286.3
"2016-01-29 00:39:30",1326250,6.288,318.4,8.81,1.584,16.11,104.5606,10.95,12.16,19.72,0,110.3,13.16,11.74,280.4
"2016-01-29 00:40:00",1326251,4.179,312.6,5.008,0.69,13.57,104.5476,10.91,11.98,19.55,0,110.3,13.22,11.70,274.6
"2016-01-29 00:40:30",1326252,5.164,314.9,7.058,1.138,15.24,104.5498,10.92,12.07,19.57,0,110.3,13.17,11.71,276.9
"2016-01-29 00:41:00",1326253,4.982,310.5,8.42,1.49,16.22,104.5516,10.92,12.18,19.7,0,110.3,13.17,11.72,272.5
"2016-01-29 00:41:30",1326254,4.36,315.1,4.156,0.973,14.69,104.5426,10.9,12.05,19.73,0,110.3,13.17,11.69,277.1
"2016-01-29 00:42:00",1326255,5.676,314.8,8.69,1.192,15.9,104.535,10.88,12.03,19.69,0,110.3,13.17,11.67,276.8
"2016-01-29 00:42:30",1326256,5.027,310.7,6.686,1.084,14.75,104.5221,10.85,12.02,19.67,0,110.3,13.17,11.64,272.7
"2016-01-29 00:43:00",1326257,5.622,321.1,8.66,1.268,15.03,104.5224,10.85,12.04,19.7,0,110.3,13.17,11.64,283.1
"2016-01-29 00:43:30",1326258,5.229,318.5,9.1,1.396,15.61,104.5149,10.83,12.05,19.76,0,110.3,13.17,11.62,280.5
"2016-01-29 00:44:00",1326259,3.978,309.8,3.551,0.481,13.52,104.5082,10.81,11.86,19.59,0,110.3,13.22,11.60,271.8
"2016-01-29 00:44:30",1326260,5.353,320.6,9.32,1.546,15.48,104.4952,10.78,11.98,19.72,0,110.3,13.18,11.57,282.6
"2016-01-29 00:45:00",1326261,5.194,314.7,10.06,1.411,15.06,104.4942,10.78,11.96,19.59,0,110.3,13.18,11.57,276.7
"2016-01-29 00:45:30",1326262,4.69,310.9,5.636,1.273,15.27,104.4946,10.78,11.94,19.67,0,110.3,13.18,11.57,272.9
"2016-01-29 00:46:00",1326263,5.376,318.8,7.152,1.483,16.21,104.4848,10.75,11.96,19.73,0,110.3,13.18,11.54,280.8
"2016-01-29 00:46:30",1326264,3.949,311,1.596,0.152,13.7,104.4796,10.74,11.78,19.57,0,110.2,13.22,11.53,273.0
"2016-01-29 00:47:00",1326265,4.334,317.2,7.89,1.293,15.41,104.4686,10.71,11.95,19.81,0,110.3,13.18,11.50,279.2
"2016-01-29 00:47:30",1326266,5.384,323,4.284,0.819,14.97,104.4694,10.71,11.85,19.73,0,110.3,13.18,11.50,285.0
"2016-01-29 00:48:00",1326267,4.825,318.5,6.573,0.459,13.54,104.4672,10.71,11.74,19.61,0,110.2,13.22,11.50,280.5
"2016-01-29 00:48:30",1326268,5.113,325.9,7.771,1.042,15.07,104.4556,10.68,11.85,19.79,0,110.2,13.17,11.47,287.9
"2016-01-29 00:49:00",1326269,6.061,329,8.19,1.551,16.76,104.4446,10.65,11.92,19.86,0,110.2,13.18,11.44,291.0
"2016-01-29 00:49:30",1326270,6.593,325.3,7.347,1.476,16.16,104.4362,10.63,11.78,19.77,0,110.2,13.18,11.42,287.3
"2016-01-29 00:50:00",1326271,5.911,324.1,8.98,1.342,15.62,104.4362,10.63,11.81,19.8,0,110.2,13.18,11.42,286.1
"2016-01-29 00:50:30",1326272,5.061,315.7,6.671,1.15,14.91,104.4356,10.63,11.76,19.86,0,110.2,13.18,11.42,277.7
"2016-01-29 00:51:00",1326273,5.572,321.7,8.02,1.427,15.72,104.4333,10.62,11.78,19.92,0,110.2,13.18,11.41,283.7
"2016-01-29 00:51:30",1326274,4.187,317,2.754,0.11,13.39,104.4252,10.6,11.65,19.92,0,110.2,13.22,11.39,279.0
"2016-01-29 00:52:00",1326275,4.301,310.4,3.897,0.76,13.65,104.4181,10.58,11.64,19.97,0,110.2,13.18,11.37,272.4
"2016-01-29 00:52:30",1326276,4.713,315.1,7.55,1.202,15.09,104.4164,10.58,11.81,20.16,0,110.2,13.18,11.37,277.1
"2016-01-29 00:53:00",1326277,5.14,313.1,7.36,1.378,15.49,104.4043,10.55,11.77,20.22,0,110.2,13.18,11.34,275.1
"2016-01-29 00:53:30",1326278,5.308,313.2,8.01,1.475,15.67,104.4023,10.54,11.69,20.19,0,110.2,13.17,11.33,275.2
"2016-01-29 00:54:00",1326279,4.652,310,4.949,0.848,14.17,104.4023,10.54,11.69,20.27,0,110.2,13.18,11.33,272.0
"2016-01-29 00:54:30",1326280,5.129,314.5,6.517,1.37,15.13,104.3955,10.53,11.77,20.39,0,110.2,13.17,11.31,276.5
"2016-01-29 00:55:00",1326281,4.985,315.1,5.842,1.252,14.68,104.3876,10.51,11.66,20.32,0,110.2,13.18,11.29,277.1
"2016-01-29 00:55:30",1326282,4.315,318.2,4.303,0.385,13.39,104.3792,10.48,11.56,20.26,0,110.2,13.22,11.27,280.2
"2016-01-29 00:56:00",1326283,4.066,321.3,3.691,0.69,13.92,104.3687,10.46,11.64,20.4,0,110.2,13.18,11.25,283.3
"2016-01-29 00:56:30",1326284,5.117,323.3,8.74,1.395,16.07,104.3684,10.46,11.67,20.54,0,110.2,13.18,11.24,285.3
"2016-01-29 00:57:00",1326285,4.72,323.9,7.041,1.313,15.71,104.3693,10.46,11.71,20.76,0,110.2,13.18,11.25,285.9
"2016-01-29 00:57:30",1326286,5.418,324.1,6.626,1.44,15.94,104.3623,10.44,11.6,20.7,0,110.2,13.18,11.23,286.1
"2016-01-29 00:58:00",1326287,5.085,322.8,6.536,1.189,14.79,104.3567,10.43,11.52,20.5,0,110.2,13.18,11.21,284.8
"2016-01-29 00:58:30",1326288,6.081,321.5,7.509,1.338,15.91,104.353,10.42,11.7,20.56,0,110.2,13.18,11.21,283.5
"2016-01-29 00:59:00",1326289,5.354,318.8,4.875,1.345,14.27,104.3454,10.4,11.48,20.41,0,110.2,13.18,11.19,280.8
"2016-01-29 00:59:30",1326290,4.821,315.5,2.945,0.187,13.5,104.3419,10.39,11.46,20.46,0,110.2,13.23,11.18,277.5
"2016-01-29 01:00:00",1326291,5.615,319.2,7.355,1.269,15.31,104.3413,10.39,11.59,20.62,0,110.2,13.18,11.18,281.2
"2016-01-29 01:00:30",1326292,5.807,328.4,8.51,1.421,16.61,104.3443,10.39,11.65,20.75,0,110.2,13.18,11.18,290.4
"2016-01-29 01:01:00",1326293,5.521,331.8,7.561,1.388,16.16,104.3458,10.4,11.51,20.68,0,110.2,13.19,11.19,293.8
"2016-01-29 01:01:30",1326294,5.039,333.1,6.616,1.245,14.99,104.3436,10.39,11.52,20.84,0,110.2,13.19,11.18,295.1
"2016-01-29 01:02:00",1326295,5.914,335.4,8.5,1.419,16.26,104.3394,10.38,11.61,21.02,0,110.2,13.19,11.17,297.4
"2016-01-29 01:02:30",1326296,5.931,328.1,8.76,1.562,15.31,104.3338,10.37,11.51,20.81,0,110.2,13.19,11.16,290.1
"2016-01-29 01:03:00",1326297,5.48,319,2.714,0.211,13.62,104.3303,10.36,11.4,20.35,0,110.2,13.23,11.15,281.0
"2016-01-29 01:03:30",1326298,6.294,317.6,1.037,0.272,14.05,104.3343,10.37,11.42,20.15,0,110.2,13.23,11.16,279.6
"2016-01-29 01:04:00",1326299,7.815,326.6,8.73,1.264,17.14,104.3322,10.36,11.54,20.12,0,110.2,13.19,11.15,288.6
"2016-01-29 01:04:30",1326300,8.05,330.4,7.59,1.474,17.28,104.336,10.37,11.53,20.05,0,110.2,13.19,11.16,292.4
"2016-01-29 01:05:00",1326301,7.094,325.7,7.432,1.389,16.45,104.3377,10.38,11.57,20.12,0,110.2,13.19,11.17,287.7
"2016-01-29 01:05:30",1326302,7.66,334.4,8.76,1.401,16.97,104.338,10.38,11.5,20.07,0,110.2,13.19,11.17,296.4
"2016-01-29 01:06:00",1326303,7.119,326.1,8.48,1.384,15.62,104.3445,10.4,11.49,19.97,0,110.2,13.19,11.18,288.1
"2016-01-29 01:06:30",1326304,5.72,317.6,3.723,0.295,13.93,104.3519,10.41,11.37,19.86,0,110.2,13.23,11.20,279.6
"2016-01-29 01:07:00",1326305,5.788,317.4,3.299,0.207,13.91,104.3579,10.43,11.4,19.9,0,110.2,13.23,11.22,279.4
"2016-01-29 01:07:30",1326306,6.983,330,6.821,1.419,16.32,104.3608,10.44,11.52,20.04,0,110.2,13.19,11.23,292.0
"2016-01-29 01:08:00",1326307,6.97,334.3,6.934,1.537,16.95,104.3599,10.43,11.58,20.2,0,110.2,13.19,11.22,296.3
"2016-01-29 01:08:30",1326308,6.761,333.5,7.548,1.381,16.13,104.3627,10.44,11.57,20.1,0,110.2,13.19,11.23,295.5
"2016-01-29 01:09:00",1326309,6.965,337.2,7.377,1.595,16.79,104.3741,10.47,11.58,20.07,0,110.2,13.18,11.26,299.2
"2016-01-29 01:09:30",1326310,6.841,337.7,8.25,1.388,16.78,104.381,10.49,11.63,20.17,0,110.2,13.18,11.28,299.7
"2016-01-29 01:10:00",1326311,5.676,327.4,2.704,0.262,13.81,104.3826,10.49,11.44,19.96,0,110.2,13.18,11.28,289.4
"2016-01-29 01:10:30",1326312,6.044,331.3,1.733,0.107,13.97,104.3888,10.51,11.45,19.9,0,110.2,13.23,11.30,293.3
"2016-01-29 01:11:00",1326313,6.67,330.2,7.127,0.991,14.93,104.397,10.53,11.56,19.95,0,110.2,13.18,11.32,292.2
"2016-01-29 01:11:30",1326314,7.346,339.4,9.68,1.481,16.94,104.3973,10.53,11.68,19.98,0,110.2,13.18,11.32,301.4
"2016-01-29 01:12:00",1326315,7.632,341,7.725,1.485,16.82,104.3985,10.53,11.63,19.98,0,110.2,13.18,11.32,303.0
"2016-01-29 01:12:30",1326316,7.416,340.5,6.33,1.456,17.02,104.4058,10.55,11.69,20.02,0,110.2,13.18,11.34,302.5
"2016-01-29 01:13:00",1326317,6.525,337.4,6.504,1.213,15.31,104.4154,10.58,11.67,20.06,0,110.2,13.18,11.37,299.4
"2016-01-29 01:13:30",1326318,6.628,335.2,8.27,1.245,15.17,104.416,10.58,11.57,20,0,110.2,13.18,11.37,297.2
"2016-01-29 01:14:00",1326319,5.979,331.9,1.995,0.208,13.61,104.4197,10.59,11.53,19.97,0,110.2,13.23,11.38,293.9
"2016-01-29 01:14:30",1326320,6.051,330.4,2.357,0.188,13.86,104.4265,10.6,11.54,20.04,0,110.2,13.24,11.39,292.4
"2016-01-29 01:15:00",1326321,7.094,333.9,7.484,1.433,16.45,104.4319,10.62,11.72,20.13,0,110.2,13.19,11.41,295.9
"2016-01-29 01:15:30",1326322,7.035,335.4,7.517,1.409,17.4,104.4332,10.62,11.82,20.18,0,110.2,13.19,11.41,297.4
"2016-01-29 01:16:00",1326323,6.147,334.5,7.563,1.435,16.45,104.4362,10.63,11.73,20.1,0,110.2,13.19,11.42,296.5
"2016-01-29 01:16:30",1326324,6.313,333.4,6.95,1.413,16.42,104.4353,10.63,11.69,20.05,0,110.2,13.19,11.42,295.4
"2016-01-29 01:17:00",1326325,6.081,332.8,7.466,1.368,15.07,104.4374,10.63,11.69,20.08,0,110.2,13.19,11.42,294.8
"2016-01-29 01:17:30",1326326,5.007,323.9,2.41,0.324,13.69,104.438,10.63,11.6,20.02,0,110.2,13.24,11.42,285.9
"2016-01-29 01:18:00",1326327,5.359,325.3,3.177,0.356,13.66,104.4391,10.64,11.61,19.91,0,110.2,13.24,11.43,287.3
"2016-01-29 01:18:30",1326328,5.451,327.5,1.64,0.235,13.85,104.443,10.65,11.64,19.95,0,110.2,13.24,11.44,289.5
"2016-01-29 01:19:00",1326329,7.547,336.7,7.099,1.324,17.88,104.445,10.65,11.85,20.25,0,110.2,13.19,11.44,298.7
"2016-01-29 01:19:30",1326330,6.474,332.3,7.413,1.406,16.27,104.4484,10.66,11.85,20.28,0,110.2,13.2,11.45,294.3
"2016-01-29 01:20:00",1326331,6.196,333.4,7.156,1.381,16.44,104.4512,10.67,11.74,20.2,0,110.2,13.19,11.46,295.4
"2016-01-29 01:20:30",1326332,6.436,332.5,7.858,1.408,15.36,104.4506,10.67,11.73,20.12,0,110.2,13.19,11.46,294.5
"2016-01-29 01:21:00",1326333,6.317,331.4,6.057,0.975,14.44,104.4478,10.66,11.71,20.18,0,110.2,13.2,11.45,293.4
"2016-01-29 01:21:30",1326334,5.199,327.9,1.191,0.279,13.58,104.4478,10.66,11.63,20.06,0,110.2,13.24,11.45,289.9
"2016-01-29 01:22:00",1326335,4.852,328.4,3.495,0.325,13.77,104.4439,10.65,11.63,20.02,0,110.2,13.24,11.44,290.4
"2016-01-29 01:22:30",1326336,6.341,336.7,7.016,1.336,16.09,104.4413,10.64,11.75,20.17,0,110.2,13.2,11.43,298.7
"2016-01-29 01:23:00",1326337,6.76,338.3,7.113,1.432,17.32,104.4394,10.64,11.88,20.33,0,110.2,13.2,11.43,300.3
"2016-01-29 01:23:30",1326338,6.486,336.3,6.415,1.321,16.62,104.4377,10.63,11.77,20.2,0,110.2,13.2,11.42,298.3
"2016-01-29 01:24:00",1326339,6.162,334.8,7.428,1.412,16,104.4377,10.63,11.74,20.16,0,110.2,13.2,11.42,296.8
"2016-01-29 01:24:30",1326340,5.63,336.3,7.369,1.364,15.03,104.4377,10.63,11.74,20.09,0,110.2,13.2,11.42,298.3
"2016-01-29 01:25:00",1326341,5.494,332.1,2.014,0.409,13.55,104.4377,10.63,11.62,20,0,110.2,13.23,11.42,294.1
"2016-01-29 01:25:30",1326342,5.653,334.7,2.857,0.297,13.5,104.4377,10.63,11.62,20.08,0,110.2,13.23,11.42,296.7
"2016-01-29 01:26:00",1326343,5.875,338.8,3.455,0.204,13.69,104.4354,10.63,11.62,20.31,0,110.2,13.23,11.42,300.8
"2016-01-29 01:26:30",1326344,6.609,341.1,8.97,1.398,17.13,104.4295,10.61,11.89,20.52,0,110.2,13.19,11.40,303.1
"2016-01-29 01:27:00",1326345,7.087,340.4,7.367,1.47,17.19,104.4244,10.6,11.82,20.37,0,110.2,13.19,11.39,302.4
"2016-01-29 01:27:30",1326346,6.963,338.5,8.78,1.423,15.74,104.4207,10.59,11.78,20.56,0,110.2,13.19,11.38,300.5
"2016-01-29 01:28:00",1326347,6.298,342.3,8.29,1.605,15.69,104.4204,10.59,11.72,20.64,0,110.2,13.18,11.38,304.3
"2016-01-29 01:28:30",1326348,5.21,328.3,2.463,0.242,13.52,104.4156,10.58,11.59,20.47,0,110.2,13.23,11.37,290.3
"2016-01-29 01:29:00",1326349,4.449,324.2,1.339,0.195,13.59,104.4052,10.55,11.59,20.31,0,110.2,13.23,11.34,286.2
"2016-01-29 01:29:30",1326350,4.259,320.9,1.8,0.127,13.78,104.4038,10.55,11.58,20.23,0,110.2,13.23,11.34,282.9
"2016-01-29 01:30:00",1326351,5.159,327.6,8.07,1.278,15.73,104.4038,10.55,11.77,20.48,0,110.2,13.19,11.34,289.6
"2016-01-29 01:30:30",1326352,5.867,328.3,8.59,1.434,16.73,104.4038,10.55,11.75,20.63,0,110.2,13.19,11.34,290.3
"2016-01-29 01:31:00",1326353,5.034,321.9,6.534,1.394,15.96,104.4038,10.55,11.75,20.57,0,110.2,13.2,11.34,283.9
"2016-01-29 01:31:30",1326354,4.973,325.6,7.434,1.343,16.45,104.3965,10.53,11.72,20.42,0,110.2,13.2,11.32,287.6
"2016-01-29 01:32:00",1326355,4.069,323.5,5.754,1.307,15.07,104.3902,10.51,11.65,20.28,0,110.2,13.2,11.30,285.5
"2016-01-29 01:32:30",1326356,2.869,321.2,1.575,0.083,13.38,104.3868,10.5,11.54,20.12,0,110.2,13.25,11.29,283.2
"2016-01-29 01:33:00",1326357,3.656,323.9,5.618,0.42,13.46,104.3806,10.49,11.53,20.13,0,110.2,13.24,11.28,285.9
"2016-01-29 01:33:30",1326358,4.482,335.6,4.709,0.676,13.53,104.371,10.46,11.53,20.38,0,110.2,13.2,11.25,297.6
"2016-01-29 01:34:00",1326359,5.583,339.7,5.311,1.351,15.2,104.3699,10.46,11.65,20.8,0,110.2,13.2,11.25,301.7
"2016-01-29 01:34:30",1326360,6.347,341.4,7.688,1.401,15.97,104.3699,10.46,11.67,21.02,0,110.2,13.2,11.25,303.4
"2016-01-29 01:35:00",1326361,6.38,342.9,8.38,1.403,15.97,104.3688,10.46,11.65,21.09,0,110.2,13.2,11.25,304.9
"2016-01-29 01:35:30",1326362,6.368,347.2,8.62,1.43,16.43,104.3592,10.43,11.71,21.33,0,110.2,13.2,11.22,309.2
"2016-01-29 01:36:00",1326363,5.542,343.7,6.752,1.271,14.52,104.3527,10.42,11.56,21.29,0,110.2,13.2,11.20,305.7
"2016-01-29 01:36:30",1326364,4.635,338.2,1.085,0.206,13.33,104.3397,10.38,11.45,20.98,0,110.2,13.25,11.17,300.2
"2016-01-29 01:37:00",1326365,5.264,338.3,6.845,1.142,14.77,104.336,10.37,11.49,20.84,0,110.2,13.2,11.16,300.3
"2016-01-29 01:37:30",1326366,4.951,333.7,6.931,1.297,15.37,104.336,10.37,11.53,20.73,0,110.2,13.2,11.16,295.7
"2016-01-29 01:38:00",1326367,4.835,337.3,9.39,1.193,15.14,104.3346,10.37,11.49,20.57,0,110.2,13.2,11.16,299.3
"2016-01-29 01:38:30",1326368,4.478,334.8,3.724,0.984,13.98,104.3273,10.35,11.4,20.45,0,110.2,13.2,11.14,296.8
"2016-01-29 01:39:00",1326369,5.012,337.2,8.4,1.35,15.64,104.3188,10.33,11.55,20.57,0,110.2,13.2,11.12,299.2
"2016-01-29 01:39:30",1326370,6.129,343.4,7.702,1.439,16.46,104.3064,10.3,11.58,20.66,0,110.2,13.2,11.09,305.4
"2016-01-29 01:40:00",1326371,5.544,342,6.304,1.219,14.61,104.3022,10.29,11.47,21.05,0,110.2,13.2,11.07,304.0
"2016-01-29 01:40:30",1326372,4.965,340,2.842,0.54,13.54,104.3025,10.29,11.42,21.25,0,110.2,13.25,11.08,302.0
"2016-01-29 01:41:00",1326373,6.154,343.7,8.03,1.492,15.99,104.3019,10.29,11.46,21.36,0,110.2,13.2,11.07,305.7
"2016-01-29 01:41:30",1326374,4.994,338.9,7.27,1.275,14.74,104.2923,10.26,11.43,21.06,0,110.2,13.2,11.05,300.9
"2016-01-29 01:42:00",1326375,3.809,336.8,2.023,0.108,13.48,104.2849,10.24,11.3,20.69,0,110.2,13.24,11.03,298.8
"2016-01-29 01:42:30",1326376,3.686,338.1,4.181,0.55,13.86,104.2734,10.21,11.36,20.57,0,110.2,13.24,11.00,300.1
"2016-01-29 01:43:00",1326377,5.026,345.7,7.224,1.397,16.41,104.2686,10.2,11.45,20.59,0,110.2,13.2,10.99,307.7
"2016-01-29 01:43:30",1326378,5.125,348.5,9.22,1.576,16.5,104.2686,10.2,11.48,20.62,0,110.2,13.19,10.99,310.5
"2016-01-29 01:44:00",1326379,5.703,353.7,7.439,1.3,14.98,104.2692,10.2,11.36,20.88,0,110.2,13.2,10.99,315.7
"2016-01-29 01:44:30",1326380,5.606,353.4,7.022,1.279,14.8,104.2669,10.2,11.4,21.42,0,110.2,13.19,10.98,315.4
"2016-01-29 01:45:00",1326381,6.485,351.3,8.16,1.359,16.06,104.2593,10.18,11.37,21.48,0,110.2,13.19,10.96,313.3
"2016-01-29 01:45:30",1326382,4.382,337.2,1.457,0.269,13.32,104.241,10.13,11.23,20.97,0,110.2,13.24,10.92,299.2
"2016-01-29 01:46:00",1326383,3.567,334.4,1.135,0.22,13.4,104.2359,10.12,11.21,20.65,0,110.2,13.24,10.90,296.4
"2016-01-29 01:46:30",1326384,2.901,333.5,1.068,0.166,13.54,104.235,10.12,11.21,20.51,0,110.2,13.24,10.90,295.5
"2016-01-29 01:47:00",1326385,3.602,338.5,7.164,1.388,15.93,104.235,10.12,11.36,20.64,0,110.2,13.2,10.90,300.5